Theta_e
286 286 286 285 285 285 284 283 283 282 282 281 281 281 281 281 281 281 280 280 280 279 279 279 279 279 280 279 279 279 278 277 278 278 277 278 277 277 278 276 276 276
285 286 285 285 284 284 283 283 282 282 281 281 281 281 281 281 281 280 280 279 279 279 278 278 278 278 278 278 278 278 277 276 276 279 277 277 276 276 276 275 275 275
285 285 284 284 283 283 282 282 282 282 281 281 281 281 281 280 280 279 279 279 278 278 278 277 277 277 277 277 277 277 276 275 275 275 276 276 275 276 275 275 275 275
284 284 284 283 283 282 282 282 281 281 281 281 280 281 281 280 279 279 279 279 278 277 277 277 276 276 276 276 276 276 276 275 275 275 275 275 276 275 275 275 275 275
283 283 283 282 282 282 281 281 280 280 280 280 280 280 280 279 278 278 278 277 277 276 276 276 276 275 275 275 275 275 275 275 274 274 274 274 274 276 276 276 274 274
283 283 283 282 282 281 280 280 280 280 279 279 279 279 278 278 277 277 277 277 276 276 275 275 275 274 274 274 274 274 275 275 274 273 273 273 273 274 276 275 274 274
282 282 281 281 280 280 280 279 279 279 279 278 278 277 277 277 277 277 276 276 276 276 275 274 274 274 274 274 273 273 274 274 273 273 272 273 273 273 274 274 273 273
281 281 281 280 280 279 279 279 278 278 278 278 277 277 277 277 277 277 276 276 275 275 274 274 273 273 273 273 273 272 272 275 273 272 272 272 272 272 272 274 273 273
280 280 279 279 279 278 278 278 278 278 278 278 277 277 277 277 277 277 277 275 274 274 274 273 273 272 273 272 272 271 271 271 272 271 271 272 272 272 272 272 272 272
279 279 279 278 278 278 277 277 278 278 279 278 278 278 277 277 277 277 276 274 274 273 273 272 272 272 272 272 272 271 271 271 271 271 271 271 272 272 272 272 272 272
278 279 278 278 278 278 277 277 277 277 277 277 277 276 276 276 276 275 275 274 273 273 272 272 272 272 272 271 271 271 271 271 271 271 271 271 272 272 275 273 272 272
278 278 278 278 278 278 277 276 276 276 276 276 276 276 275 274 274 274 273 273 273 272 271 271 271 270 270 271 271 270 270 270 271 271 272 272 272 272 272 272 272 272
278 278 278 278 278 277 276 275 275 275 275 275 275 275 274 273 272 273 273 273 273 272 272 271 271 270 270 270 270 269 270 270 271 272 272 272 273 272 272 272 272 272
279 278 278 278 277 276 275 275 275 275 276 276 275 274 273 273 273 273 273 273 273 273 272 271 270 270 269 269 269 270 270 271 271 271 272 272 272 272 272 272 272 272
278 278 277 277 276 276 275 275 276 276 275 275 275 275 275 273 272 273 273 273 272 272 271 271 270 270 270 269 269 271 271 271 272 272 271 270 270 270 271 271 271 271
278 277 277 277 276 276 275 276 276 275 275 275 275 274 273 273 274 274 273 272 271 270 270 270 270 270 272 276 275 271 271 272 273 272 272 271 270 270 270 271 271 271
278 277 277 276 276 276 276 276 275 275 275 274 273 273 273 273 273 272 271 272 271 270 270 271 270 270 275 277 278 277 274 274 273 273 273 273 272 271 270 270 270 270
278 277 277 276 276 276 276 276 275 274 274 274 273 273 273 273 272 272 271 271 271 271 270 270 269 274 276 277 278 278 278 275 274 273 273 273 273 272 271 270 270 270
278 277 277 276 276 276 276 275 274 274 273 272 272 273 272 272 272 272 271 271 271 270 269 268 268 274 277 278 278 279 279 277 275 274 273 273 273 272 272 272 271 270
277 277 276 276 276 276 275 274 274 273 273 272 272 273 272 272 271 271 271 270 270 269 268 267 267 273 276 277 278 279 278 278 275 274 273 273 272 272 272 272 271 270
277 276 276 276 275 275 274 274 273 273 273 273 272 272 272 271 271 270 270 269 268 266 266 267 267 274 275 277 278 278 278 278 275 274 273 272 272 272 271 271 270 269
276 275 275 274 274 274 273 273 273 272 272 273 272 272 272 271 270 270 269 268 267 265 265 266 266 274 275 276 277 278 278 276 274 273 271 271 271 271 270 269 269 269
275 275 274 274 273 273 272 273 273 272 272 272 271 272 271 270 269 269 268 267 265 265 265 265 264 270 274 276 277 278 277 273 273 271 270 269 269 269 270 269 269 269
276 275 274 273 273 273 273 274 274 273 272 272 271 270 270 269 269 267 266 265 265 264 265 264 264 267 273 275 276 277 276 272 271 269 268 268 269 269 269 269 270 272
276 275 275 274 273 273 273 274 273 273 272 271 271 270 270 268 267 267 266 265 265 264 267 265 263 266 272 274 275 276 276 273 271 269 268 268 268 268 269 270 271 272
275 275 275 274 274 273 273 274 273 271 270 270 270 269 268 267 266 266 265 265 264 263 263 265 264 263 264 272 274 275 277 273 270 268 267 267 268 268 268 269 270 270
Wind_Speed
7 6 8 8 7 7 8 9 7 8 7 6 7 5 6 5 5 6 6 6 6 7 5 5 5 5 6 5 5 6 6 5 5 4 4 5 5 5 5 5 5 3
8 8 7 7 7 7 7 7 7 8 7 6 6 6 5 6 4 6 6 6 6 6 5 5 5 5 5 5 5 6 6 5 5 3 4 5 4 5 4 4 4 3
8 8 9 9 9 9 9 7 7 6 7 6 6 6 6 4 6 5 5 5 6 5 5 5 5 5 5 4 5 5 5 4 4 3 4 3 3 4 3 3 3 3
7 8 9 9 9 10 8 9 7 7 6 7 6 5 5 5 5 6 5 5 6 6 5 5 4 4 4 4 5 5 4 4 2 3 3 3 2 3 3 3 3 4
9 8 7 8 8 8 8 9 8 7 7 7 7 6 6 6 6 6 6 5 5 5 5 4 4 4 4 4 4 5 4 4 3 3 3 3 1 2 1 3 3 3
6 7 7 8 8 9 8 8 8 8 8 7 7 6 5 5 5 5 6 6 5 5 5 4 3 3 3 3 4 4 4 5 3 3 3 3 2 2 2 3 3 3
9 8 8 8 8 8 9 8 7 7 6 6 6 6 6 6 5 5 5 6 6 5 4 4 3 3 3 3 4 4 3 3 3 3 3 2 2 3 2 2 3 2
8 7 8 7 9 8 9 8 7 7 6 6 6 5 5 6 6 5 5 6 5 5 4 4 3 3 3 3 4 4 3 3 3 3 3 2 2 2 3 2 2 2
9 8 8 9 9 8 8 8 7 7 6 8 7 6 5 5 6 6 6 5 5 5 4 4 3 3 3 3 3 4 3 3 3 2 2 1 2 2 2 1 2 2
9 9 9 9 9 7 9 7 7 7 7 8 7 7 7 6 6 7 6 5 5 4 4 4 3 2 2 2 3 3 3 2 2 2 1 1 1 1 2 2 1 2
10 10 10 9 9 8 8 8 8 8 7 8 8 7 8 8 6 6 6 5 5 4 4 3 3 2 1 1 2 3 3 2 1 1 1 1 1 1 2 0 1 1
10 10 11 11 10 9 9 8 8 7 7 6 8 8 7 5 6 4 5 5 5 4 3 3 3 3 1 1 1 2 2 2 1 0 0 0 1 1 2 2 2 3
11 11 11 11 10 10 8 7 7 7 7 8 7 7 7 6 5 5 4 5 4 4 3 3 3 2 2 1 1 2 1 1 2 1 1 1 1 2 2 2 2 2
10 10 10 10 10 9 9 9 8 8 8 8 8 8 7 7 7 6 4 5 4 4 3 3 2 1 1 2 2 3 2 2 1 1 1 1 2 2 2 2 3 3
9 8 8 9 9 9 9 9 9 8 8 7 7 7 6 6 5 6 6 5 3 3 2 2 3 3 2 3 3 3 3 1 0 0 1 2 2 3 3 3 3 3
10 9 9 9 10 10 10 10 9 8 8 7 7 7 6 6 6 6 5 5 5 3 3 2 3 2 4 7 6 4 2 2 1 1 1 2 2 3 3 3 3 3
10 10 10 11 10 10 8 10 10 8 7 7 6 7 8 7 7 7 5 5 5 4 5 4 4 3 8 8 7 8 5 3 3 3 3 3 3 3 4 4 3 3
11 11 11 11 11 10 9 8 8 8 8 8 7 8 7 6 7 7 6 5 5 5 5 5 4 7 10 8 8 8 7 4 3 3 4 4 4 4 4 4 3 3
10 12 11 10 10 9 8 7 8 8 7 8 9 7 7 7 7 7 7 5 6 6 5 4 4 8 9 8 8 9 8 7 4 4 4 5 5 5 5 4 3 4
11 10 10 10 9 8 8 8 9 9 8 6 6 6 8 7 6 7 6 6 6 6 5 4 5 8 9 8 8 9 9 7 3 5 5 6 6 6 5 5 3 4
11 10 10 9 9 9 9 9 9 8 8 8 8 9 10 10 9 8 7 6 5 5 5 6 6 9 9 9 9 9 9 8 3 5 5 6 6 5 4 3 3 4
10 10 10 9 10 9 10 10 9 10 10 8 7 6 4 4 4 5 7 7 6 5 5 6 6 9 9 9 10 9 10 4 3 4 6 6 6 4 3 3 4 5
11 11 11 11 10 10 11 11 11 10 8 6 7 8 8 8 8 8 7 7 7 6 7 6 5 7 9 10 9 10 7 2 3 3 4 4 5 4 4 4 4 4
13 13 12 11 11 13 13 12 9 7 8 8 10 10 10 8 7 6 6 6 8 8 8 7 6 6 9 9 10 10 8 5 4 3 5 6 5 5 4 4 5 10
11 11 11 11 12 13 12 12 12 11 8 7 6 6 6 5 6 6 6 6 7 7 7 7 6 6 8 9 11 10 8 4 5 5 6 5 5 5 5 4 5 6
10 12 12 12 13 11 9 9 6 7 8 9 7 6 6 6 6 6 7 7 6 6 6 6 6 6 5 10 10 11 12 6 5 5 7 6 6 5 4 4 4 4
Wind_Direction
127 126 128 124 122 124 127 124 122 122 122 127 119 120 112 115 104 96 92 86 82 83 80 78 75 72 68 71 71 72 66 62 50 41 54 75 64 64 52 47 42 50
126 121 116 113 110 108 107 115 125 125 124 119 116 112 101 102 92 92 92 90 85 86 83 78 72 71 68 74 79 80 69 63 56 25 64 76 83 75 71 67 59 37
127 126 127 129 129 125 121 117 116 117 117 117 107 101 104 98 99 92 94 97 94 86 79 75 72 66 72 77 82 89 87 75 61 46 73 79 80 82 87 76 59 60
127 129 127 126 125 125 125 120 116 114 113 107 109 113 110 106 104 105 99 95 95 90 83 79 80 76 77 85 90 91 93 82 88 73 76 66 59 93 82 79 58 36
134 128 126 122 122 121 122 123 124 123 117 120 116 116 116 116 113 112 109 101 101 97 90 87 79 78 85 89 100 105 99 90 63 68 73 63 19 61 41 79 65 33
119 125 127 128 129 128 126 126 129 127 128 126 131 123 124 122 121 124 119 115 109 109 103 100 95 88 91 101 96 101 106 90 76 72 60 59 9 32 49 80 72 43
135 132 128 124 121 124 124 126 126 124 124 131 121 125 130 126 127 128 126 124 123 121 123 123 120 105 99 101 97 91 85 93 75 78 65 30 46 16 25 62 62 45
132 128 127 126 126 129 127 127 128 129 136 128 125 131 128 133 137 136 131 130 128 129 128 131 124 115 105 95 91 88 76 78 73 70 71 35 54 27 360 25 52 32
135 134 133 134 132 132 129 130 131 136 139 134 137 136 136 146 148 141 137 133 128 131 128 119 109 95 102 99 104 108 95 72 79 85 81 56 29 353 344 2 24 7
141 139 137 139 135 139 138 141 143 146 146 142 145 148 148 150 139 137 135 135 129 122 112 108 100 98 87 113 126 115 108 98 74 64 68 47 46 332 334 347 341 349
147 147 144 144 143 148 150 149 152 151 153 152 149 145 147 135 133 134 133 124 123 125 130 127 132 133 117 106 99 113 119 110 72 75 28 355 330 305 307 331 297 274
153 152 152 152 153 155 158 158 154 156 155 154 153 146 150 145 137 134 131 128 126 136 139 142 135 133 168 177 124 96 91 87 89 34 328 315 322 304 281 273 259 265
162 161 158 157 160 160 157 156 158 159 160 158 161 154 147 141 135 131 128 129 139 137 149 137 129 138 166 164 132 111 104 88 54 71 56 2 310 293 297 273 264 260
166 161 161 162 160 158 161 161 160 166 167 161 156 152 145 142 147 145 139 132 136 150 141 126 129 156 185 162 130 110 101 86 94 77 320 316 296 297 296 289 282 283
163 162 159 159 159 159 161 165 169 168 162 157 153 142 138 143 146 145 140 141 136 140 131 126 154 200 209 172 137 112 110 99 63 302 301 280 293 295 298 299 296 291
166 162 163 162 166 169 172 169 166 165 161 157 154 147 142 145 146 143 145 149 153 156 157 176 192 201 220 203 168 145 128 140 183 247 256 262 271 283 288 287 282 275
168 170 166 172 174 174 173 168 167 166 163 159 155 153 153 153 148 152 158 157 162 166 179 193 201 207 221 210 190 172 157 177 206 234 248 256 251 253 260 266 273 275
173 168 172 176 175 181 175 172 165 162 165 166 161 158 161 154 156 162 157 166 169 173 191 199 201 219 224 214 206 206 200 190 210 225 239 245 249 247 246 250 259 273
172 173 176 178 182 177 172 167 168 168 167 170 177 171 157 165 161 160 174 176 179 187 195 202 202 228 227 220 216 217 218 216 214 226 235 243 245 251 254 252 252 260
176 176 180 181 177 174 172 175 176 181 178 176 164 159 167 159 164 168 170 185 191 190 197 199 208 227 226 229 226 224 224 223 198 229 235 239 242 246 249 252 255 255
180 180 182 180 178 175 175 181 183 179 178 180 179 180 176 178 177 177 184 184 189 187 189 207 218 223 225 231 233 229 227 231 207 224 236 241 242 241 245 246 250 258
181 183 184 182 178 176 179 185 188 187 185 181 179 184 178 149 155 160 178 186 187 183 190 216 229 225 227 232 236 234 232 222 204 225 241 246 249 242 252 256 253 251
185 186 188 183 180 179 187 191 188 192 189 172 177 182 166 181 179 181 178 176 182 188 197 220 225 230 230 232 236 234 230 173 196 204 241 249 253 245 238 237 236 240
191 188 187 185 182 190 193 195 193 190 185 178 182 179 189 191 171 167 175 179 185 194 198 206 224 228 229 233 234 230 222 187 200 211 240 245 247 248 244 242 239 256
188 187 188 187 192 198 194 191 192 190 176 168 180 181 189 158 169 175 177 189 196 194 200 206 223 230 231 233 233 231 228 182 192 202 232 240 247 247 243 233 239 254
186 189 192 191 197 197 197 200 177 157 170 175 178 176 170 169 172 178 182 197 192 189 205 206 217 235 230 236 236 234 229 200 164 201 234 239 236 236 225 238 235 234